Location: ??????
(41.3747°N, 22.5491°E)
Time: 15:07:35
(UTC+00:00)

NOSS 3-2 (C) - Pass Details

Date: 01 December 2020
Orbit: 789 x 1424 km, 63.4° (Epoch: 09 January)

Event Time Altitude Azimuth Distance (km) Brightness Sun altitude
Rises 18:08:32 0° 232° (SW) 3,332 7.0 -34.5°
Reaches altitude 10° 18:10:56 10° 239° (WSW) 2,448 6.2 -35.0°
Enters shadow 18:15:13 42° 280° (W) 1,244 4.3 -35.8°
